Flag for Canada Weather past 2 weeks in Cornwall, Ontario, Canada

Now
63 °F

Mild.


Feels Like: 63 °F
Forecast: N/A
Wind: 6 mph from West

Location: St Anicet

Current Time: Sep 16, 2014 at 6:33:02 PM

Latest Report: Sep 16, 2014 at 6:00 PM


Visibility: N/A

Pressure: 29.93 "Hg

Humidity: 56%

Dew point: 47 °F

Location of CornwallLocation

Historic Weather in Cornwall — Graph

°F

Cornwall temperature yesterday

Maximum temperature yesterday: 66 °F (at 3:00 PM)
Minimum temperature yesterday: 34 °F (at 1:00 AM)
Average temperature yesterday: 51 °F

Past Weeks' High & Low Weather Summary

 TemperatureHumidityPressure
High87 °F (Sep 5, 5:00 PM)100% (Sep 1, 10:00 PM)30.34 "Hg (Sep 1, 10:00 PM)
Low34 °F (Sep 15, 1:00 AM)42% (Sep 15, 3:00 PM)29.52 "Hg (Sep 11, 9:00 AM)
Average62 °F80%30.03 "Hg
* Reported Sep 1 5:00 PM — Sep 16 5:00 PM, Cornwall, Weather by CustomWeather, © 2014

Note: Actual official high and low records may vary slightly from our data, if they occured in-between our weather recording intervals... More about our weather records

Advertising

Cornwall weather history for previous 24 hours

 ConditionsComfort  
Time TempWeatherWind HumidityBarometerVisibility
5:00 PM
Sep 16
65 °FMild.8 mph51%29.92 "HgN/A
4:00 PM65 °FMild.12 mph49%29.92 "HgN/A
3:00 PM64 °FMild.8 mph60%29.93 "HgN/A
2:00 PM64 °FMild.10 mph59%29.95 "HgN/A
1:00 PM61 °FCool.10 mph69%29.97 "HgN/A
12:00 PM59 °FCool.9 mph73%29.98 "HgN/A
11:00 AM58 °FCool.9 mph79%29.99 "HgN/A
10:00 AM58 °FCool.6 mph84%29.98 "HgN/A
9:00 AM57 °FCool.6 mph92%29.98 "HgN/A
8:00 AM53 °FCool.3 mph96%29.99 "HgN/A
7:00 AM53 °FCool.3 mph96%30.00 "HgN/A
6:00 AM53 °FCool.2 mph96%29.97 "HgN/A
5:00 AM52 °FCool.2 mph89%29.97 "HgN/A
4:00 AM53 °FCool.5 mph93%29.98 "HgN/A
3:00 AM54 °FCool.5 mph90%29.98 "HgN/A
2:00 AM53 °FCool.3 mph92%29.99 "HgN/A
1:00 AM54 °FCool.3 mph90%30.00 "HgN/A
12:00 AM54 °FCool.3 mph88%30.02 "HgN/A
11:00 PM
Sep 15
56 °FCool.5 mph80%30.03 "HgN/A
10:00 PM57 °FCool.5 mph76%30.03 "HgN/A
9:00 PM58 °FCool.6 mph71%30.04 "HgN/A
8:00 PM59 °FCool.5 mph70%30.04 "HgN/A
7:00 PM60 °FCool.5 mph68%30.05 "HgN/A
6:00 PM63 °FMild.6 mph62%30.06 "HgN/A
Weather by CustomWeather, © 2014

See weather overviewHow to use our weather pages